Location: Oso Ridge
(35.0450°N, 108.0864°W)
Time: 03:54:47
(UTC-07:00)

Amateur Radio Satellites - All Passes

Search period start: 13 February 2016 03:24
Search period end: 14 February 2016 03:24
Location: Oso Ridge, 35.0450°N, 108.0864°W

Satellite Date Start Highest point End Downlink Frequencies (MHz)
Time Altitude Azimuth
HORYU 2 13 Feb 03:35:43 03:38:02 14° 93° (E) 03:40:19 437.375
KKS-1 13 Feb 03:49:55 03:53:28 23° 264° (W) 03:57:01 437.445
YUBILEINY 13 Feb 03:52:51 04:01:17 50° 282° (WNW) 04:09:49 435.215
MOZHAYETS 4 13 Feb 04:08:44 04:13:00 40° 261° (W) 04:17:19
M-CUBED/EXP-1 PRIME 13 Feb 04:10:18 04:13:32 33° 104° (ESE) 04:16:58 437.505
AUBIESAT-1 13 Feb 04:16:49 04:20:05 33° 104° (ESE) 04:23:33 437.475
AIST 2 13 Feb 04:25:28 04:28:35 21° 249° (WSW) 04:31:40 435.215
PHONESAT 2.4 13 Feb 04:31:16 04:34:32 65° 205° (SSW) 04:37:45 2401.200-2431.200
SO-50 13 Feb 04:55:02 04:59:17 29° 308° (NW) 05:03:36 436.795
AO-7 13 Feb 04:56:40 05:04:40 54° 293° (WNW) 05:12:37 29.400- 29.500
CUBESAT XI-V 13 Feb 04:58:56 05:03:33 63° 75° (ENE) 05:08:14 437.345
Cosmos 2504 13 Feb 05:03:11 05:11:46 79° 277° (W) 05:20:42 435.465 / 435.565
HORYU 2 13 Feb 05:10:32 05:14:46 44° 287° (WNW) 05:19:00 437.375
CUTE-I 13 Feb 05:13:32 05:15:41 12° 91° (E) 05:17:49 437.470
Cubesat XI-IV 13 Feb 05:27:12 05:30:46 18° 94° (E) 05:34:19 437.490
STRAND 1 13 Feb 05:31:49 05:35:14 18° 65° (ENE) 05:38:39 437.568
JUGNU 13 Feb 05:45:54 05:47:04 11° 165° (SSE) 05:48:13 437.505
M-CUBED/EXP-1 PRIME 13 Feb 05:46:21 05:47:56 13° 295° (WNW) 05:49:34 437.505
AUBIESAT-1 13 Feb 05:52:40 05:54:25 13° 295° (WNW) 05:56:14 437.475
PHONESAT 2.4 13 Feb 06:10:56 06:11:19 10° 219° (SW) 06:11:43 2401.200-2431.200
BRITE-PL 13 Feb 06:17:35 06:21:25 27° 95° (E) 06:25:02 437.365/2234.400
LilacSat-2 13 Feb 06:22:12 06:25:57 59° 100° (E) 06:29:42 437.200
PRISM 13 Feb 06:33:25 06:36:24 19° 68° (ENE) 06:39:24 437.425
CUBESAT XI-V 13 Feb 06:40:27 06:41:19 10° 269° (W) 06:42:09 437.345
CUTE-I 13 Feb 06:50:47 06:56:08 68° 286° (WNW) 07:01:28 437.470
Cosmos 2504 13 Feb 07:02:31 07:06:36 14° 296° (WNW) 07:10:45 435.465 / 435.565
GOMX 1 13 Feb 07:03:54 07:07:59 42° 98° (E) 07:11:54 467.674
Cubesat XI-IV 13 Feb 07:05:52 07:11:03 49° 288° (WNW) 07:16:12 437.490
HO-68 13 Feb 07:08:57 07:13:14 16° 92° (E) 07:17:27 435.675
STRAND 1 13 Feb 07:09:07 07:14:00 46° 261° (W) 07:18:57 437.568
GONETS M04 13 Feb 07:24:28 07:30:58 24° 83° (E) 07:37:29
O/OREOS (USA 219) 13 Feb 07:26:30 07:30:55 67° 291° (WNW) 07:35:25 437.305
JUGNU 13 Feb 07:31:37 07:35:19 17° 175° (S) 07:39:01 437.505
CUTE 1.7 + AOD 2 13 Feb 07:41:41 07:44:58 21° 95° (E) 07:48:14 437.475
SEEDS 13 Feb 07:41:57 07:44:31 15° 93° (E) 07:47:04 437.485
BRITE-PL 13 Feb 07:56:17 07:59:44 22° 292° (WNW) 08:03:02 437.365/2234.400
DOVE 4 13 Feb 08:03:46 08:07:56 75° 283° (WNW) 08:12:03 437.250
Cosmos 2499 13 Feb 08:03:52 08:09:27 19° 80° (E) 08:15:04 435.465 / 435.565
PRISM 13 Feb 08:07:54 08:11:31 28° 263° (W) 08:15:09 437.425
CUBEBUG 2 13 Feb 08:13:09 08:15:08 13° 93° (E) 08:17:09 437.445
AO-85 13 Feb 08:16:47 08:20:38 21° 107° (ESE) 08:24:35 145.980
CANX-2 13 Feb 08:26:36 08:30:56 87° 104° (ESE) 08:35:13 2200.000
CINEMA 3 13 Feb 08:30:04 08:34:13 67° 102° (ESE) 08:38:26 145.822/145.860
GOMX 1 13 Feb 08:43:39 08:45:39 13° 294° (WNW) 08:47:37 467.674
ZACube-1 13 Feb 08:50:24 08:53:19 18° 95° (E) 08:56:15 437.345
HO-68 13 Feb 08:54:18 09:01:30 76° 288° (WNW) 09:08:39 435.675
COMPASS 1 13 Feb 08:54:58 08:59:13 89° 90° (E) 09:03:27 437.405
FUNcube-1 13 Feb 08:57:11 09:00:22 20° 95° (E) 09:03:37 145.935
AIST 1 13 Feb 09:04:15 09:05:34 11° 85° (E) 09:06:52
PCSat 13 Feb 09:06:49 09:11:25 29° 108° (ESE) 09:16:01 145.827
SRMSAT 13 Feb 09:15:08 09:18:36 16° 173° (S) 09:22:05 437.500
SEEDS 13 Feb 09:16:25 09:20:18 36° 287° (WNW) 09:24:13 437.485
ANTELSAT 13 Feb 09:17:06 09:20:48 29° 71° (ENE) 09:24:28 437.575/2403.000
CUTE 1.7 + AOD 2 13 Feb 09:17:08 09:20:45 27° 289° (WNW) 09:24:22 437.475
GONETS M04 13 Feb 09:18:30 09:27:02 61° 280° (W) 09:35:40
JUGNU 13 Feb 09:19:53 09:23:37 17° 185° (S) 09:27:20 437.505
AAUSAT CUBESAT 2 13 Feb 09:20:01 09:24:08 55° 285° (WNW) 09:28:14 437.432
TIGRISAT 13 Feb 09:22:30 09:26:19 31° 72° (ENE) 09:30:05 435.000
Oscar 11 13 Feb 09:23:32 09:27:50 58° 100° (E) 09:32:07 145.826/435.025
RS-15 13 Feb 09:35:58 09:45:10 32° 104° (ESE) 09:54:40 29.354- 29.394
POLYITAN 1 13 Feb 09:38:07 09:39:10 11° 65° (ENE) 09:40:14 437.675
QB50P2 13 Feb 09:38:15 09:39:37 11° 66° (ENE) 09:40:58 145.880/145.840
UWE-3 13 Feb 09:40:13 09:44:28 76° 283° (WNW) 09:48:49 435.000/436.395/437.385
CUBEBUG 2 13 Feb 09:47:55 09:51:55 42° 286° (WNW) 09:56:00 437.445
Cosmos 2499 13 Feb 09:52:44 10:01:27 80° 277° (W) 10:10:24 435.465 / 435.565
AO-85 13 Feb 09:55:38 10:00:46 49° 304° (WNW) 10:06:06 145.980
DELFI C3 13 Feb 10:03:18 10:07:22 85° 283° (WNW) 10:11:25 145.870
POPSAT HIP 1 13 Feb 10:04:50 10:08:07 22° 70° (ENE) 10:11:24 437.405
DUCHIFAT 1 13 Feb 10:06:44 10:09:58 22° 70° (ENE) 10:13:12 145.980
NANOSAT C BR1 13 Feb 10:06:58 10:10:18 23° 70° (ENE) 10:13:38 145.865
UNISAT 6 13 Feb 10:08:04 10:12:21 67° 258° (WSW) 10:16:37 437.425
HUMSAT D 13 Feb 10:10:48 10:14:49 43° 99° (E) 10:18:51 437.325/437.525
QB50P1 13 Feb 10:16:35 10:20:18 31° 72° (ENE) 10:24:02 145.935-145.965
ZACube-1 13 Feb 10:25:50 10:29:38 32° 288° (WNW) 10:33:29 437.345
FUNcube-1 13 Feb 10:32:57 10:36:36 28° 288° (WNW) 10:40:17 145.935
AIST 1 13 Feb 10:38:23 10:42:38 48° 279° (W) 10:46:56
HO-68 13 Feb 10:45:16 10:48:01 13° 305° (NW) 10:50:46 435.675
PCSat 13 Feb 10:49:48 10:54:39 33° 303° (WNW) 10:59:33 145.827
VELOX 1 13 Feb 10:50:43 10:53:59 20° 95° (E) 10:57:13 145.980
BUGSAT 1 13 Feb 10:50:51 10:54:42 36° 73° (ENE) 10:58:32 437.445
ANTELSAT 13 Feb 10:54:24 10:57:30 19° 265° (W) 11:00:36 437.575/2403.000
UKube-1 13 Feb 10:58:59 11:02:22 22° 96° (E) 11:05:44 .
TIGRISAT 13 Feb 11:00:08 11:03:02 18° 265° (W) 11:05:55 435.000
Oscar 11 13 Feb 11:02:21 11:03:25 11° 295° (WNW) 11:04:29 145.826/435.025
SRMSAT 13 Feb 11:03:13 11:07:03 18° 183° (S) 11:10:52 437.500
50 SAT 13 Feb 11:03:48 11:07:19 35° 98° (E) 11:10:50 437.505
AISAT 13 Feb 11:07:31 11:11:31 33° 98° (E) 11:15:28 437.250
JUGNU 13 Feb 11:10:20 11:11:52 11° 195° (SSW) 11:13:23 437.505
POLYITAN 1 13 Feb 11:10:21 11:14:29 54° 259° (W) 11:18:38 437.675
QB50P2 13 Feb 11:10:48 11:14:56 52° 260° (W) 11:19:04 145.880/145.840
CUBEBUG 1 13 Feb 11:15:45 11:19:41 33° 98° (E) 11:23:35 437.445
DX 1 13 Feb 11:17:27 11:21:38 44° 100° (E) 11:25:45 434.975-435.025
Oscar 19 13 Feb 11:28:34 11:30:14 12° 62° (ENE) 11:31:55 437.125/150
POPSAT HIP 1 13 Feb 11:40:17 11:43:46 25° 263° (W) 11:47:15 437.405
DUCHIFAT 1 13 Feb 11:42:01 11:45:32 25° 264° (W) 11:49:02 145.980
NANOSAT C BR1 13 Feb 11:42:30 11:45:56 24° 264° (W) 11:49:22 145.865
ESTCUBE 1 13 Feb 11:44:50 11:49:23 78° 283° (WNW) 11:53:53 437.505/2401.250
RS-15 13 Feb 11:45:40 11:56:38 64° 304° (WNW) 12:08:16 29.354- 29.394
HUMSAT D 13 Feb 11:48:00 11:50:04 14° 293° (WNW) 11:52:10 437.325/437.525
SO-50 13 Feb 11:50:17 11:52:44 14° 45° (NE) 11:55:08 436.795
Cosmos 2499 13 Feb 11:51:35 11:55:56 14° 296° (WNW) 12:00:21 435.465 / 435.565
QB50P1 13 Feb 11:53:14 11:56:06 18° 265° (W) 11:58:59 145.935-145.965
DANDE 13 Feb 12:09:45 12:14:56 26° 68° (ENE) 12:19:04 436.750
JAS-2 13 Feb 12:10:04 12:16:30 32° 68° (ENE) 12:22:27 435.910
YUBILEINY 13 Feb 12:14:38 12:17:04 11° 62° (ENE) 12:19:31 435.215
VELOX 1 13 Feb 12:26:37 12:30:27 30° 289° (WNW) 12:34:15 145.980
BUGSAT 1 13 Feb 12:27:49 12:30:11 15° 266° (W) 12:32:32 437.445
Gurwin Techsat 1B 13 Feb 12:29:40 12:33:07 18° 65° (ENE) 12:36:35 435.225
TISAT 1 13 Feb 12:30:38 12:34:13 27° 97° (E) 12:37:47 437.305
UKube-1 13 Feb 12:34:45 12:38:21 26° 290° (WNW) 12:41:55 .
SPROUT 13 Feb 12:36:30 12:40:45 78° 285° (WNW) 12:45:00 437.525
50 SAT 13 Feb 12:39:12 12:40:59 13° 292° (WNW) 12:42:46 437.505
AISAT 13 Feb 12:44:42 12:47:43 18° 292° (WNW) 12:50:44 437.250
CUSAT 1 13 Feb 12:45:04 12:50:06 68° 265° (W) 12:53:51 437.405
ITAMSAT 1 13 Feb 12:45:47 12:47:50 12° 62° (ENE) 12:49:54 435.822/435.867
CUBEBUG 1 13 Feb 12:52:46 12:55:42 18° 292° (WNW) 12:58:38 437.445
SRMSAT 13 Feb 12:53:03 12:55:27 13° 193° (SSW) 12:57:52 437.500
DX 1 13 Feb 12:55:11 12:57:24 14° 294° (WNW) 12:59:37 434.975-435.025
Oscar 19 13 Feb 13:03:41 13:08:52 77° 258° (WSW) 13:14:03 437.125/150
ITUPSAT 1 13 Feb 13:27:53 13:31:30 21° 95° (E) 13:35:06 437.325
SO-50 13 Feb 13:29:01 13:33:47 73° 243° (WSW) 13:38:21 436.795
BEESAT 13 Feb 13:33:23 13:37:18 24° 96° (E) 13:41:11 436.000
DANDE 13 Feb 13:52:37 13:57:53 30° 274° (W) 14:02:00 436.750
JAS-2 13 Feb 13:53:58 14:01:16 46° 261° (W) 14:07:58 435.910
ISS 13 Feb 13:55:07 13:58:21 76° 137° (SE) 14:01:36 145.825
AO-7 13 Feb 14:00:18 14:07:25 32° 61° (ENE) 14:14:31 29.400- 29.500
RS-15 13 Feb 14:04:16 14:12:05 20° 332° (NNW) 14:20:12 29.354- 29.394
YUBILEINY 13 Feb 14:06:40 14:15:31 71° 82° (E) 14:24:15 435.215
TISAT 1 13 Feb 14:06:41 14:09:41 20° 291° (WNW) 14:12:42 437.305
Gurwin Techsat 1B 13 Feb 14:07:28 14:12:37 51° 260° (W) 14:17:48 435.225
Cosmos 2491 13 Feb 14:09:44 14:17:45 43° 88° (E) 14:25:46 435.465 / 435.565
ITAMSAT 1 13 Feb 14:21:28 14:26:38 72° 258° (WSW) 14:31:51 435.822/435.867
SWISSCUBE 13 Feb 14:25:35 14:30:24 80° 284° (WNW) 14:35:12 437.505
M-CUBED/EXP-1 PRIME 13 Feb 14:55:15 14:58:11 24° 68° (ENE) 15:01:00 437.505
Cosmos 2504 13 Feb 15:01:14 15:08:40 33° 73° (ENE) 15:15:36 435.465 / 435.565
AUBIESAT-1 13 Feb 15:01:22 15:04:13 23° 68° (ENE) 15:07:00 437.475
ITUPSAT 1 13 Feb 15:05:01 15:09:22 34° 289° (WNW) 15:13:41 437.325
BEESAT 13 Feb 15:10:54 15:15:01 29° 290° (WNW) 15:19:08 436.000
STARS 13 Feb 15:15:46 15:19:01 20° 95° (E) 15:22:15 437.465
BEESAT 3 13 Feb 15:19:17 15:22:39 27° 112° (ESE) 15:26:02 437.485
ISS 13 Feb 15:33:27 15:35:08 13° 332° (NNW) 15:36:50 145.825
KKS-1 13 Feb 15:42:58 15:47:25 86° 105° (ESE) 15:51:50 437.445
BEESAT 2 13 Feb 15:50:39 15:54:24 39° 114° (ESE) 15:58:10 435.950
AO-7 13 Feb 15:51:41 15:59:46 53° 258° (WSW) 16:07:54 29.400- 29.500
O/OREOS (USA 219) 13 Feb 16:02:32 16:04:24 12° 57° (ENE) 16:06:16 437.305
HORYU 2 13 Feb 16:04:57 16:09:21 73° 259° (W) 16:13:46 437.375
YUBILEINY 13 Feb 16:05:21 16:11:19 21° 279° (W) 16:17:18 435.215
MOZHAYETS 4 13 Feb 16:06:35 16:11:11 60° 100° (E) 16:15:45
Cosmos 2491 13 Feb 16:06:47 16:14:34 36° 285° (WNW) 16:22:24 435.465 / 435.565
RS-15 13 Feb 16:26:11 16:31:40 14° 10° (N) 16:37:14 29.354- 29.394
M-CUBED/EXP-1 PRIME 13 Feb 16:30:38 16:32:48 15° 259° (WSW) 16:34:54 437.505
CUTE-I 13 Feb 16:31:58 16:35:08 16° 64° (ENE) 16:38:18 437.470
AUBIESAT-1 13 Feb 16:36:32 16:38:45 16° 259° (W) 16:40:56 437.475
AIST 2 13 Feb 16:43:02 16:44:56 13° 108° (ESE) 16:46:51 435.215
Cubesat XI-IV 13 Feb 16:46:03 16:50:04 22° 66° (ENE) 16:54:06 437.490
STARS 13 Feb 16:51:36 16:55:22 29° 289° (WNW) 16:59:08 437.465
Cosmos 2504 13 Feb 16:54:18 17:02:09 44° 272° (W) 17:09:26 435.465 / 435.565
BEESAT 3 13 Feb 16:57:16 17:00:22 21° 307° (NW) 17:03:29 437.485
CUBESAT XI-V 13 Feb 16:59:43 17:03:11 20° 94° (E) 17:06:37 437.345
LilacSat-2 13 Feb 17:02:03 17:04:43 19° 70° (ENE) 17:07:24 437.200
BRITE-PL 13 Feb 17:23:54 17:28:41 29° 70° (ENE) 17:33:21 437.365/2234.400
BEESAT 2 13 Feb 17:29:53 17:32:27 16° 310° (NW) 17:35:01 435.950
O/OREOS (USA 219) 13 Feb 17:39:40 17:44:12 60° 253° (WSW) 17:48:43 437.305
MOZHAYETS 4 13 Feb 17:46:01 17:47:49 12° 295° (WNW) 17:49:35
PCSat 13 Feb 17:58:51 18:01:34 14° 48° (NE) 18:04:16 145.827
GOMX 1 13 Feb 18:07:47 18:12:41 38° 72° (ENE) 18:17:23 467.674
CUTE-I 13 Feb 18:09:26 18:14:39 57° 259° (W) 18:19:55 437.470
AIST 2 13 Feb 18:18:59 18:23:00 46° 302° (WNW) 18:27:01 435.215
Cubesat XI-IV 13 Feb 18:24:52 18:29:50 40° 261° (W) 18:34:51 437.490
AO-85 13 Feb 18:31:04 18:36:07 66° 58° (ENE) 18:40:41 145.980
CUTE 1.7 + AOD 2 13 Feb 18:33:59 18:34:37 10° 65° (ENE) 18:35:16 437.475
LilacSat-2 13 Feb 18:35:46 18:38:52 23° 264° (W) 18:41:58 437.200
CUBESAT XI-V 13 Feb 18:36:25 18:40:36 33° 288° (WNW) 18:44:45 437.345
RS-15 13 Feb 18:38:59 18:49:42 34° 43° (NE) 19:00:30 29.354- 29.394
BRITE-PL 13 Feb 19:01:51 19:06:58 34° 263° (W) 19:11:59 437.365/2234.400
DOVE 4 13 Feb 19:05:02 19:10:06 75° 76° (ENE) 19:14:53 437.250
CANX-2 13 Feb 19:16:12 19:20:06 38° 73° (ENE) 19:24:02 2200.000
HO-68 13 Feb 19:18:49 19:25:48 59° 70° (ENE) 19:32:50 435.675
STRAND 1 13 Feb 19:22:36 19:27:47 78° 103° (ESE) 19:32:56 437.568
CINEMA 3 13 Feb 19:28:24 19:32:42 41° 74° (ENE) 19:36:50 145.822/145.860
GONETS M04 13 Feb 19:32:34 19:41:16 59° 80° (E) 19:49:55
PCSat 13 Feb 19:40:10 19:45:37 83° 245° (WSW) 19:51:02 145.827
COMPASS 1 13 Feb 19:42:38 19:46:27 37° 73° (ENE) 19:50:18 437.405
GOMX 1 13 Feb 19:46:35 19:50:45 23° 265° (W) 19:54:49 467.674
Cosmos 2499 13 Feb 19:49:45 19:56:47 31° 72° (ENE) 20:03:20 435.465 / 435.565
FUNcube-1 13 Feb 19:52:14 19:53:04 11° 66° (ENE) 19:53:55 145.935
PRISM 13 Feb 19:52:19 19:56:21 46° 100° (E) 20:00:19 437.425
SEEDS 13 Feb 20:04:19 20:08:28 82° 255° (WSW) 20:12:42 437.485
CUTE 1.7 + AOD 2 13 Feb 20:05:48 20:09:55 57° 260° (W) 20:14:06 437.475
AAUSAT CUBESAT 2 13 Feb 20:06:47 20:10:50 60° 75° (ENE) 20:14:56 437.432
AO-85 13 Feb 20:14:24 20:15:49 11° 256° (WSW) 20:17:13 145.980
Oscar 11 13 Feb 20:15:19 20:19:02 29° 71° (ENE) 20:22:46 145.826/435.025
ISS 13 Feb 20:25:49 20:28:24 21° 33° (NNE) 20:30:58 145.825
UWE-3 13 Feb 20:34:00 20:38:08 55° 75° (ENE) 20:42:13 435.000/436.395/437.385
CUBEBUG 2 13 Feb 20:42:28 20:46:46 80° 258° (WSW) 20:50:59 437.445
DELFI C3 13 Feb 20:46:30 20:50:05 33° 73° (ENE) 20:53:42 145.870
AIST 1 13 Feb 20:49:07 20:52:51 27° 78° (ENE) 20:56:31
RS-15 13 Feb 20:51:06 21:03:17 75° 246° (WSW) 21:15:32 29.354- 29.394
CANX-2 13 Feb 20:53:54 20:56:06 14° 267° (W) 20:58:19 2200.000
HUMSAT D 13 Feb 20:59:56 21:02:52 19° 69° (ENE) 21:05:48 437.325/437.525
STRAND 1 13 Feb 21:04:43 21:06:14 11° 298° (WNW) 21:07:45 437.568
CINEMA 3 13 Feb 21:07:22 21:09:57 15° 266° (W) 21:12:28 145.822/145.860
HO-68 13 Feb 21:08:28 21:13:50 23° 265° (W) 21:19:16 435.675
ZACube-1 13 Feb 21:17:59 21:22:07 61° 259° (W) 21:26:15 437.345
COMPASS 1 13 Feb 21:19:55 21:22:09 14° 267° (W) 21:24:23 437.405
FUNcube-1 13 Feb 21:24:45 21:28:51 53° 260° (W) 21:32:55 145.935
PRISM 13 Feb 21:29:32 21:31:13 12° 294° (WNW) 21:32:53 437.425
GONETS M04 13 Feb 21:30:33 21:37:24 26° 277° (W) 21:44:15
Cosmos 2499 13 Feb 21:42:26 21:50:04 45° 272° (W) 21:57:08 435.465 / 435.565
50 SAT 13 Feb 21:43:07 21:44:16 11° 67° (ENE) 21:45:26 437.505
VELOX 1 13 Feb 21:46:16 21:48:21 13° 66° (ENE) 21:50:26 145.980
UKube-1 13 Feb 21:51:47 21:53:54 13° 66° (ENE) 21:56:01 .
Oscar 11 13 Feb 21:52:04 21:55:09 19° 265° (W) 21:58:16 145.826/435.025
ISS 13 Feb 22:01:57 22:04:53 32° 228° (SW) 22:07:48 145.825
AISAT 13 Feb 22:02:20 22:05:41 21° 69° (ENE) 22:09:02 437.250
UNISAT 6 13 Feb 22:03:00 22:06:55 31° 98° (E) 22:10:53 437.425
CUBEBUG 1 13 Feb 22:09:09 22:12:21 20° 68° (ENE) 22:15:33 437.445
DX 1 13 Feb 22:10:06 22:13:44 26° 70° (ENE) 22:17:23 434.975-435.025
DELFI C3 13 Feb 22:22:54 22:25:05 14° 267° (W) 22:27:16 145.870
AIST 1 13 Feb 22:27:11 22:30:12 19° 272° (W) 22:33:12
HUMSAT D 13 Feb 22:34:53 22:38:19 26° 263° (W) 22:41:47 437.325/437.525
ESTCUBE 1 13 Feb 22:40:49 22:45:17 63° 75° (ENE) 22:49:48 437.505/2401.250
PHONESAT 2.4 13 Feb 22:43:49 22:47:03 59° 152° (SSE) 22:50:17 2401.200-2431.200
ANTELSAT 13 Feb 22:47:33 22:51:58 78° 283° (WNW) 22:56:27 437.575/2403.000
TIGRISAT 13 Feb 22:52:53 22:57:15 71° 284° (WNW) 23:01:42 435.000
POLYITAN 1 13 Feb 22:58:52 23:02:32 29° 97° (E) 23:06:12 437.675
QB50P2 13 Feb 22:59:14 23:02:59 30° 98° (E) 23:06:41 145.880/145.840
RS-15 13 Feb 23:08:02 23:13:41 15° 263° (W) 23:19:22 29.354- 29.394
50 SAT 13 Feb 23:14:26 23:17:53 38° 261° (W) 23:21:23 437.505
VELOX 1 13 Feb 23:20:01 23:24:22 50° 260° (W) 23:28:42 145.980
TISAT 1 13 Feb 23:20:29 23:22:49 15° 67° (ENE) 23:25:08 437.305
UKube-1 13 Feb 23:25:22 23:29:31 46° 260° (W) 23:33:43 .
SPROUT 13 Feb 23:26:47 23:30:56 50° 74° (ENE) 23:35:06 437.525
POPSAT HIP 1 13 Feb 23:27:27 23:31:38 64° 101° (ESE) 23:35:47 437.405
DUCHIFAT 1 13 Feb 23:28:38 23:32:46 61° 100° (E) 23:36:54 145.980
NANOSAT C BR1 13 Feb 23:29:16 23:33:25 66° 101° (E) 23:37:35 145.865
AISAT 13 Feb 23:38:03 23:41:58 30° 263° (W) 23:45:53 437.250
QB50P1 13 Feb 23:39:38 23:43:51 87° 277° (W) 23:48:03 145.935-145.965
UNISAT 6 13 Feb 23:40:13 23:43:26 20° 291° (WNW) 23:46:40 437.425
CUBEBUG 1 13 Feb 23:44:26 23:48:24 32° 262° (W) 23:52:22 437.445
DX 1 13 Feb 23:46:23 23:49:51 23° 264° (W) 23:53:20 434.975-435.025
CUSAT 1 14 Feb 00:00:19 00:06:27 25° 86° (E) 00:12:31 437.405
BUGSAT 1 14 Feb 00:10:52 00:14:54 80° 283° (WNW) 00:18:54 437.445
BEESAT 2 14 Feb 00:14:19 00:15:03 10° 46° (NE) 00:15:47 435.950
PHONESAT 2.4 14 Feb 00:21:18 00:24:24 37° 349° (NNW) 00:27:29 2401.200-2431.200
Cosmos 2491 14 Feb 00:25:25 00:30:45 17° 67° (ENE) 00:36:04 435.465 / 435.565
ITUPSAT 1 14 Feb 00:32:09 00:35:17 18° 66° (ENE) 00:38:25 437.325
POLYITAN 1 14 Feb 00:35:08 00:38:08 19° 291° (WNW) 00:41:08 437.675
QB50P2 14 Feb 00:35:38 00:38:33 19° 291° (WNW) 00:41:28 145.880/145.840
BEESAT 14 Feb 00:37:10 00:40:38 20° 67° (ENE) 00:44:06 436.000
TISAT 1 14 Feb 00:54:10 00:58:07 39° 261° (W) 01:02:05 437.305
SPROUT 14 Feb 01:05:57 01:07:09 11° 268° (W) 01:08:21 437.525
JAS-2 14 Feb 01:08:29 01:12:54 26° 95° (E) 01:17:09 435.910
DANDE 14 Feb 01:10:12 01:17:41 49° 90° (E) 01:25:44 436.750
YUBILEINY 14 Feb 01:11:56 01:16:12 15° 78° (ENE) 01:20:29 435.215
BEESAT 3 14 Feb 01:16:46 01:20:43 79° 61° (ENE) 01:24:38 437.485
Oscar 19 14 Feb 01:18:40 01:23:38 49° 100° (E) 01:28:34 437.125/150
SWISSCUBE 14 Feb 01:28:35 01:33:21 81° 75° (ENE) 01:38:09 437.505
CUSAT 1 14 Feb 01:40:09 01:48:07 66° 280° (W) 01:56:01 437.405
BEESAT 2 14 Feb 01:49:24 01:53:23 69° 243° (WSW) 01:57:18 435.950
PHONESAT 2.4 14 Feb 01:59:06 02:02:05 31° 6° (N) 02:05:03 2401.200-2431.200
ITUPSAT 1 14 Feb 02:08:15 02:12:46 42° 261° (W) 02:17:18 437.325
STARS 14 Feb 02:10:46 02:12:44 13° 66° (ENE) 02:14:42 437.465
BEESAT 14 Feb 02:13:47 02:18:08 36° 262° (W) 02:22:32 436.000
Cosmos 2491 14 Feb 02:19:49 02:28:37 85° 265° (W) 02:37:25 435.465 / 435.565
Gurwin Techsat 1B 14 Feb 02:26:46 02:32:07 84° 102° (ESE) 02:37:27 435.225
KKS-1 14 Feb 02:37:38 02:41:57 51° 74° (ENE) 02:46:16 437.445
ITAMSAT 1 14 Feb 02:37:39 02:42:46 53° 100° (E) 02:47:52 435.822/435.867
AIST 2 14 Feb 02:43:23 02:47:17 39° 57° (ENE) 02:51:08 435.215
JAS-2 14 Feb 02:53:20 02:58:00 30° 292° (WNW) 03:02:29 435.910
DANDE 14 Feb 02:53:38 03:00:47 35° 288° (WNW) 03:08:23 436.750
Oscar 19 14 Feb 02:59:15 03:02:31 17° 295° (WNW) 03:05:47 437.125/150
YUBILEINY 14 Feb 03:02:51 03:11:38 89° 86° (E) 03:20:31 435.215
MOZHAYETS 4 14 Feb 03:05:18 03:09:30 37° 72° (ENE) 03:13:44
